Location: Aalen
(48.8330°N, 10.1000°E)
Time: 20:37:53
(UTC+02:00)

UNISAT 6 - Pass Details

Date: 06 April 2023
Orbit: 599 x 680 km, 97.7° (Epoch: 04 June)

Event Time Altitude Azimuth Distance (km) Brightness Sun altitude
Rises 05:57:59 0° 166° (SSE) 2,942 ? -8.7°
Reaches altitude 10° 06:00:10 10° 166° (SSE) 2,049 ? -8.4°
Maximum altitude 06:04:39 87° 255° (WSW) 669 ? -7.7°
Drops below altitude 10° 06:09:17 10° 346° (NNW) 2,111 ? -7.0°
Sets 06:11:33 0° 347° (NNW) 3,039 ? -6.6°
